Location: Unspecified
(48.8656°N, 0.0000°E)
Time: 01:56:27
(UTC+00:00)

Vanguard 1 Rocket - Pass Details

Date: 26 June 2019
Orbit: 650 x 4226 km, 34.3° (Epoch: 13 October)

Event Time Altitude Azimuth Distance (km) Brightness Sun altitude
Rises 15:01:48 0° 220° (SW) 8,390 12.9 46.7°
Reaches altitude 10° 15:08:54 10° 212° (SSW) 7,116 12.6 45.6°
Maximum altitude 15:26:58 33° 160° (SSE) 4,205 11.1 42.7°
Drops below altitude 10° 15:38:22 10° 103° (ESE) 4,523 10.6 40.9°
Sets 15:41:38 0° 93° (E) 5,103 10.8 40.4°
